This is the latest recevied weather packets stored in our database for station/object KO4APQ. If no packets are shown the sender has not sent any weather packets the latest 10 day(s).
| Time | Temp. | Humidity | Pressure | Rain* | Wind** | Luminosity | Snow |
|---|---|---|---|---|---|---|---|
| 1777921987 | 25° C | 34% | 1015.6 hPa | 0 mm | - | 807 W/m² | - |
| 1777921379 | 24.44° C | 34% | 1015.6 hPa | 0 mm | - | 844 W/m² | - |
| 1777920773 | 24.44° C | 34% | 1015.9 hPa | 0 mm | - | 844 W/m² | - |
| 1777919860 | 23.89° C | 35% | 1015.9 hPa | 0 mm | - | 878 W/m² | - |
| 1777919557 | 23.89° C | 36% | 1016.1 hPa | 0 mm | - | 856 W/m² | - |
| 1777919255 | 24.44° C | 34% | 1016.3 hPa | 0 mm | - | 894 W/m² | - |
| 1777918952 | 24.44° C | 35% | 1016.2 hPa | 0 mm | - | 894 W/m² | - |
| 1777918650 | 24.44° C | 36% | 1016.3 hPa | 0 mm | - | 902 W/m² | - |
| 1777918347 | 23.89° C | 36% | 1016.3 hPa | 0 mm | - | 854 W/m² | - |
| 1777918046 | 24.44° C | 34% | 1016.2 hPa | 0 mm | - | 887 W/m² | - |
| 1777917744 | 23.89° C | 36% | 1016.6 hPa | 0 mm | - | 876 W/m² | - |
| 1777917442 | 23.89° C | 35% | 1016.6 hPa | 0 mm | - | 874 W/m² | - |
| 1777916837 | 23.89° C | 33% | 1016.7 hPa | 0 mm | - | 897 W/m² | - |
| 1777916230 | 23.33° C | 33% | 1016.8 hPa | 0 mm | - | 890 W/m² | - |
| 1777915928 | 23.89° C | 33% | 1016.8 hPa | 0 mm | - | 909 W/m² | - |
| 1777915624 | 23.33° C | 34% | 1016.9 hPa | 0 mm | - | 922 W/m² | - |
| 1777915320 | 23.33° C | 36% | 1016.9 hPa | 0 mm | - | 943 W/m² | - |
| 1777915017 | 23.89° C | 37% | 1016.8 hPa | 0 mm | - | 912 W/m² | - |
| 1777914714 | 23.89° C | 35% | 1017 hPa | 0 mm | - | 918 W/m² | - |
| 1777914410 | 23.89° C | 34% | 1016.9 hPa | 0 mm | - | 914 W/m² | - |
| 1777914108 | 23.33° C | 34% | 1016.8 hPa | 0 mm | - | 878 W/m² | - |
| 1777913804 | 23.33° C | 35% | 1017 hPa | 0 mm | - | 914 W/m² | - |
| 1777913501 | 23.33° C | 36% | 1017.1 hPa | 0 mm | - | 900 W/m² | - |
| 1777912286 | 23.33° C | 38% | 1017.3 hPa | 0 mm | - | 911 W/m² | - |
| 1777911679 | 22.78° C | 36% | 1017.6 hPa | 0 mm | - | 884 W/m² | - |
* Rain latest hour (hover to see other rain measurements)
** Current wind speed in m/s (hover to see current wind gust speed)